Content
SEND FEEDBACK

Daily
Averages
Monthly
Summary
United States of America

BETHANY, MISSOURI


Home > North America > United States > Missouri
Elevation: 883 feet     Latitude: 40 15N     Longitude: 094 03W

WEATHER
 
SELECT A DAY
Number of Records: 171,442;   Date Range: 1/1/95 - 8/28/14
 
SHARE

PRINT THIS DATA

[ ← Previous Day ]
WEATHER ALMANAC - JANUARY 3, 2013
[ Next Day → ]
[ °C ]   °F
Weather ElementAverageHighLow
Temperature21.6 °F30.2 °F (9:37 am)12 °F (10:53 pm)
Dewpoint15.5 °F25 °F (7:53 am)8.1 °F (10:53 pm)
Humidity77.8 %89 % (1:53 am)60 % (11:53 am)
Barometer30.36 in30.43 in (6:53 pm)30.24 in (1:53 am)
Wind Speed10 mph18.4 mph (10:53 am)
Wind Gust26.5 mph (9:53 am)
Weather ElementAverage
Visibility9.9 mi
Wind DirectionWNW (287.3 °)

Weather ElementTotal
Precipitation---
Heating Degree Days43.9 (Base 65)
Averaged from 26 records on January 3, 2013
WEATHER CONDITIONS BREAKOUT
WIND DIRECTION BREAKOUT
WEATHER BY HOUR - JANUARY 3, 2013
[ °C ]   °F
Local TimeTemperatureDewpointHumidityBarometerVisibilityWind DirectionWind SpeedGust SpeedPrecipitationEventsConditions
1:53 AM27.0 °F24.1 °F89 %30.24 in8.0 miWest (280°)6.9 mphOvercast
2:53 AM27.0 °F24.1 °F89 %30.25 in9.0 miWest (270°)6.9 mphOvercast
3:53 AM25.0 °F21.9 °F88 %30.27 in10.0 miWest (260°)10.4 mphPartly Cloudy
4:53 AM26.1 °F21.9 °F84 %30.27 in10.0 miWest (270°)11.5 mphOvercast
5:53 AM27.0 °F23.0 °F85 %30.28 in10.0 miWest (280°)10.4 mphOvercast
6:53 AM28.0 °F24.1 °F85 %30.30 in10.0 miWNW (300°)9.2 mphOvercast
7:53 AM28.9 °F25.0 °F85 %30.31 in10.0 miNW (310°)10.4 mphOvercast
8:53 AM30.0 °F25.0 °F82 %30.33 in10.0 miNW (310°)13.8 mphOvercast
9:37 AM30.2 °F23.0 °F75 %30.31 in10.0 miWNW (300°)15.0 mphOvercast
9:53 AM28.9 °F21.9 °F75 %30.37 in10.0 miNW (320°)17.3 mph26.5 mphOvercast
10:53 AM24.1 °F15.1 °F69 %30.40 in10.0 miNW (310°)18.4 mphScattered Clouds
11:53 AM24.1 °F12.0 °F60 %30.39 in10.0 miWNW (300°)18.4 mph23.0 mphClear
12:53 PM23.0 °F10.9 °F60 %30.38 in10.0 miNW (320°)17.3 mphClear
1:53 PM23.0 °F10.9 °F60 %30.38 in10.0 miNW (310°)15.0 mphClear
2:53 PM23.0 °F12.0 °F63 %30.39 in10.0 miNW (310°)12.7 mphClear
3:53 PM23.0 °F12.9 °F65 %30.40 in10.0 miWNW (300°)9.2 mphClear
4:53 PM21.0 °F12.9 °F71 %30.41 in10.0 miNW (320°)8.1 mphClear
5:53 PM18.0 °F10.9 °F74 %30.42 in10.0 miNW (310°)4.6 mphClear
6:53 PM16.0 °F10.0 °F77 %30.43 in10.0 miWNW (300°)3.5 mphClear
7:53 PM14.0 °F9.0 °F80 %30.43 in10.0 miWNW (290°)5.8 mphClear
8:35 PM12.2 °F8.6 °F85 %30.37 in10.0 miWest (280°)5.8 mphMostly Cloudy
8:50 PM12.2 °F8.6 °F85 %30.36 in10.0 miWest (280°)5.8 mphScattered Clouds
8:53 PM12.9 °F9.0 °F84 %30.42 in10.0 miWest (280°)5.8 mphScattered Clouds
9:53 PM12.9 °F9.0 °F84 %30.40 in10.0 miSSW (210°)5.8 mphClear
10:53 PM12.0 °F8.1 °F84 %30.41 in10.0 miSW (230°)5.8 mphClear
11:53 PM12.0 °F8.1 °F84 %30.40 in10.0 miSW (220°)6.9 mphClear
Hourly data recorded from KLWD, located miles away from Bethany, Missouri







STORIES FROM OUR PARTNERS